Terminal Aerodrome Forecast
Issued by NWS

Home | Current Version | Previous Version | Text Only | Print | Product List | Glossary On
Versions: 1 2 3 4 5 6 7 8 9 10 11 12 13 14
000
FTUS41 KCAR 301100
TAFHUL
TAF
KHUL 301120Z 3012/3112 20008KT P6SM SCT250
     FM311000 21007KT P6SM OVC025
     FM311100 21007KT P6SM OVC015=

USA.gov is the U.S. government's official web portal to all federal, state and local government web resources and services.